Weather Roundup
Issued by NWS

Home | Current Version | Previous Version | Text Only | Print | Product List | Glossary On
Versions: 1 2 3 4 5 6 7 8 9 10 11 12 13 14 15 16 17 18 19 20 21 22 23 24 25 26 27 28 29 30 31 32 33 34 35 36 37 38 39 40 41 42 43 44 45 46 47 48 49 50
614
NZUS93 KARX 242159
HRRWXR

CURRENT HOURLY OBSERVATIONS ACROSS
MUCH OF THE UPPER MISSISSIPPI VALLEY
NATIONAL WEATHER SERVICE LA CROSSE WI
500 PM CDT SUN JUL 24 2016


...SOUTHEAST MINNESOTA...


CITY           SKY/WX    TMP DP  RH WIND       PRES   REMARKS
ROCHESTER      MOSUNNY   79  64  60 W16G26    29.98R
ROCHESTER/MAYO FAIR      81  62  53 W21G32    29.96R
WINONA         SUNNY     82  61  47 W15G21    29.92R
AUSTIN         CLOUDY    79  63  57 W15       29.99S
ALBERT LEA     CLOUDY    75  64  69 NW5       29.99F
DODGE CENTER   CLOUDY    79  63  57 NW13G18   29.99R
PRESTON        MOSUNNY   79  63  57 NW16      29.98R
OWATONNA       PTSUNNY   79  64  61 W13       29.98F
FARIBAULT      CLOUDY    79  64  61 W12       29.98S
$$

...ELSEWHERE IN MINNESOTA...


CITY           SKY/WX    TMP DP  RH WIND       PRES   REMARKS
MINNEAPOLIS    MOSUNNY   84  61  45 NW18G26   29.94R
INTNL FALLS    PTSUNNY   75  59  57 W14G23    29.81R
DULUTH         MOSUNNY   78  60  53 NW17G23   29.86R
RED WING       MOSUNNY   84  63  48 W13       29.91S
REDWOOD FALLS  CLOUDY    79  62  56 NW9       29.98F
MANKATO        CLOUDY    77  63  61 NW10      29.98F
WORTHINGTON    CLOUDY    74  65  73 NW7       30.03F
FAIRMONT       CLOUDY    75  48  38 NW7       29.98F
$$

...SOUTHWEST WISCONSIN...


CITY           SKY/WX    TMP DP  RH WIND       PRES   REMARKS
LA CROSSE      SUNNY     88  65  46 W15       29.88R HX  90
PRAIRIE DU CHI MOSUNNY   85  67  54 W9        29.88S
BOSCOBEL       MOSUNNY   87  68  52 W7        29.88R HX  90
LONE ROCK      NOT AVBL
PLATTEVILLE    CLOUDY    86  79  79 W13       29.89R HX 101
FORT MC COY    SUNNY     86  67  53 W8        29.87S
MAUSTON-NEW LI CLEAR     86  70  59 W9G16     29.84S HX  90
VIROQUA        FAIR      83  65  55 W9        29.91R
WIS DELLS      NOT AVBL
$$

...ELSEWHERE IN WISCONSIN...


CITY           SKY/WX    TMP DP  RH WIND       PRES   REMARKS
MILWAUKEE      CLOUDY    92  76  59 S12       29.81S HX 104
MADISON        PTSUNNY   88  76  67 W7        29.83S HX  99
GREEN BAY      SUNNY     86  76  71 W13       29.79S HX  96
EAU CLAIRE     SUNNY     84  63  49 W14       29.89R
BLACK RVR FLS  FAIR      86  61  42 W12       29.86R
MEDFORD        PTSUNNY   80  65  59 W13G18    29.86S
WAUSAU         MOSUNNY   84  63  49 W16G22    29.83S
WIS RAPIDS     SUNNY     87  63  44 NW9       29.86S
MARSHFIELD     SUNNY     85  66  53 W15G21    29.86S
RICE LAKE      SUNNY     80  61  53 W8G17     29.91R
$$

...NORTHEAST IOWA...


CITY           SKY/WX    TMP DP  RH WIND       PRES   REMARKS
WATERLOO       PTSUNNY   82  68  62 NW9       29.95R
DUBUQUE        MOSUNNY   87  76  69 NW12      29.90R HX  97
DECORAH        CLOUDY    81  66  61 VRB6G15   29.93R
MASON CITY     CLOUDY    80  66  62 NW13      30.00F
CHARLES CITY   CLOUDY    79  66  65 NW14G22   29.98R
OELWEIN        MOSUNNY   82  70  65 NW9       29.94S
$$

...ELSEWHERE IN IOWA...


CITY           SKY/WX    TMP DP  RH WIND       PRES   REMARKS
DES MOINES     CLOUDY    86  65  49 N17       29.97R
IOWA CITY      PTSUNNY   88  78  72 NW8       29.90S HX 101
FORT DODGE     CLOUDY    79  66  65 N5        30.00F
MARSHALLTOWN   PTSUNNY   82  70  66 NW15      29.97R
CEDAR RAPIDS   MOSUNNY   85  72  65 NW10      29.90R HX  91
$$

...NORTHERN ILLINOIS...


CITY           SKY/WX    TMP DP  RH WIND       PRES   REMARKS
CHICAGO-OHARE  CLOUDY    91  78  65 SW10      29.84F HX 106
CHICAGO-MIDWAY CLOUDY    92  79  65 S15G24    29.86S HX 108
MOLINE         MOSUNNY   89  78  70 SW6       29.87R HX 103
ROCKFORD       PTSUNNY   94  79  61 SW14      29.86S HX 111
PEORIA         PTSUNNY   92  83  75 SW13      29.88F HX 116
$$

NOTE: "FAIR" INDICATES FEW OR NO CLOUDS BELOW 12,000 FEET WITH NO
SIGNIFICANT WEATHER AND/OR OBSTRUCTIONS TO VISIBILITY. WIND
SPEEDS ARE IN MILES-PER-HOUR.




USA.gov is the U.S. government's official web portal to all federal, state and local government web resources and services.